Terug naar catalogus

STARLINK-30365

ActiefCommunicatieVLEO
NORAD 57734·PAYLOAD·🇺🇸 United States

Gelanceerd Sep 1, 2023 vanaf Cape Canaveral Space Force Station

Loading…

Volgende Passages (komende 24 uur)

TLE

VersSource: CelesTrak SupGP

Epoch: Sep 14, 2026, 22:12 UTC

1 57734C 23131C   26257.92548611 -.00018190  00000+0 -65889-3 0  2570
2 57734  43.0017 183.8274 0001236 260.7272 198.4980 15.27585895    19

Volg STARLINK-30365 in realtime met AllMySat

Download on the App Store